This demonstration page uses our WeatherBlox Daily Observations layout. Learn more.

Left ArrowRight Arrow

39.08367, -84.50855

Hourly Observations for March 18, 2019

Temp ( °F °C ) Dew Point ( °F °C ) Humidity (%) Winds ( mph kmh ) Pressure ( in mb ) Visibility ( mi km ) Precip ( " mm )
12:15 am 00:15 Mostly Cloudy 37 2.8 29 -1.7 73 73 VRB 6 9 30.33 1027 10 16 N/A
12:53 am 00:53 Clear 35 1.7 29 -1.7 78 78 N 7 11 30.32 1027 10 16 N/A
1:53 am 01:53 Clear 33 0.6 28 -2.2 82 82 VRB 5 7 30.32 1027 10 16 N/A
2:53 am 02:53 Clear 31 -0.6 29 -1.7 92 92 S 3 6 30.32 1027 9 14 N/A
3:53 am 03:53 Clear with Mist and Fog 31 -0.6 28 -2.2 89 89 N N/A 30.32 1027 6 10 N/A
4:53 am 04:53 Clear with Mist and Fog 29 -1.7 26 -3.3 89 89 N N/A 30.32 1027 4 6 N/A
5:09 am 05:09 Clear with Mist and Fog 28 -2.2 26 -3.3 92 92 VRB 5 7 30.35 1028 2 3 N/A
5:21 am 05:21 Clear with Mist and Fog 28 -2.2 26 -3.3 92 92 N N/A 30.35 1028 3 5 N/A
5:53 am 05:53 Clear with Mist and Fog 29 -1.7 27 -2.8 92 92 N N/A 30.33 1027 3 5 N/A
6:05 am 06:05 Clear with Mist and Fog 27 -2.8 26 -3.3 96 96 VRB 5 7 30.35 1028 2 3 N/A
6:18 am 06:18 Clear with Freezing Fog 26 -3.3 25 -3.9 96 96 VRB 5 7 30.37 1028 1 1 N/A
6:28 am 06:28 Clear with Mist and Fog 27 -2.8 25 -3.9 92 92 N N/A 30.36 1028 2 3 N/A
6:37 am 06:37 Clear with Mist and Fog 27 -2.8 25 -3.9 92 92 N N/A 30.36 1028 3 5 N/A
6:53 am 06:53 Clear with Mist and Fog 28 -2.2 26 -3.3 92 92 VRB 6 9 30.35 1028 4 6 N/A
7:53 am 07:53 Sunny 27 -2.8 25 -3.9 92 92 VRB 6 9 30.36 1028 5 8 N/A
7:55 am 07:55 Sunny with Mist and Fog 27 -2.8 25 -3.9 92 92 SE 6 9 30.38 1029 2 3 N/A
8:02 am 08:02 Sunny 26 -3.3 25 -3.9 96 96 VRB 6 9 30.40 1029 10 16 N/A
8:53 am 08:53 Sunny 30 -1.1 29 -1.7 96 96 N N/A 30.38 1029 10 16 N/A
9:53 am 09:53 Sunny 36 2.2 29 -1.7 76 76 ESE 6 9 30.40 1029 10 16 N/A
10:53 am 10:53 Sunny 40 4.4 22 -5.6 49 49 VRB 6 9 30.41 1030 10 16 N/A
11:53 am 11:53 Sunny 43 6.1 22 -5.6 43 43 N 12 19 30.41 1030 10 16 N/A
12:53 pm 12:53 Mostly Sunny 44 6.7 21 -6.1 40 40 VRB 7 11 30.42 1030 10 16 N/A
1:53 pm 13:53 Mostly Sunny 47 8.3 21 -6.1 36 36 WSW 7 11 30.40 1030 10 16 N/A
2:32 pm 14:32 Mostly Cloudy 49 9.4 23 -5 36 36 NNW 12 19 30.40 1029 10 16 N/A
2:53 pm 14:53 Mostly Cloudy 48 8.9 22 -5.6 36 36 VRB 7 11 30.39 1029 10 16 N/A
3:53 pm 15:53 Mostly Cloudy 48 8.9 22 -5.6 36 36 N 13 20 30.37 1029 10 16 N/A
4:53 pm 16:53 Mostly Cloudy 48 8.9 21 -6.1 34 34 W 6 9 30.37 1028 10 16 N/A
5:53 pm 17:53 Mostly Cloudy 49 9.4 22 -5.6 35 35 N 10 17 30.36 1028 10 16 N/A
6:53 pm 18:53 Mostly Cloudy 47 8.3 21 -6.1 36 36 VRB 6 9 30.37 1029 10 16 N/A
7:53 pm 19:53 Partly Cloudy 43 6.1 20 -6.7 40 40 N 5 7 30.39 1029 10 16 N/A
8:53 pm 20:53 Clear 39 3.9 27 -2.8 62 62 N N/A 30.40 1030 10 16 N/A
9:53 pm 21:53 Mostly Clear 36 2.2 24 -4.4 62 62 VRB 6 9 30.41 1030 10 16 N/A
10:53 pm 22:53 Mostly Cloudy 35 1.7 27 -2.8 72 72 VRB 3 6 30.42 1030 10 16 N/A
11:53 pm 23:53 Mostly Cloudy 34 1.1 27 -2.8 76 76 VRB 6 9 30.44 1031 10 16 N/A

Powered by AerisWeather